Theta_e
322 313 313 310 302 300 297 300 305 306 307 313 314 312 312 314 312 307 330 335 336 339 344 346 347 349 348 348 347 348 348 346 342 341 341 340 339 339 338 339 342 342 341 340 339 338 337 337 335
314 313 312 304 297 293 294 300 302 306 314 317 317 316 314 312 323 326 329 336 339 341 343 345 344 348 348 347 347 347 347 346 342 340 340 339 339 339 339 338 342 341 340 340 338 336 336 335 335
315 312 307 299 294 294 295 300 303 310 313 313 315 318 316 315 324 328 333 337 340 339 341 343 344 347 348 348 347 346 346 346 344 340 338 337 338 338 337 339 341 340 340 340 338 335 335 335 334
312 311 305 299 297 298 300 303 307 311 311 315 316 313 320 325 325 331 335 338 337 336 338 342 344 347 347 347 347 346 346 346 344 341 338 337 336 336 336 337 340 338 338 340 337 336 333 334 334
311 306 299 297 298 298 301 305 310 309 307 312 314 311 315 325 331 334 335 336 334 334 338 341 342 345 346 347 346 346 346 345 344 342 338 337 336 336 336 337 339 337 336 337 337 335 333 333 333
308 304 296 295 298 299 305 307 307 305 309 313 313 313 316 326 328 331 333 333 334 334 336 338 334 338 342 345 345 345 345 344 343 342 340 337 336 335 335 335 336 335 336 336 336 335 333 332 332
306 303 298 298 298 299 304 307 305 307 310 312 316 310 317 323 328 330 330 332 333 333 332 333 336 335 334 338 339 341 341 341 342 342 341 339 338 337 336 336 335 335 335 335 335 334 333 332 332
310 307 301 300 298 297 303 306 306 309 309 318 319 309 312 323 327 327 329 329 331 331 330 330 332 332 333 335 331 333 336 337 337 337 334 333 333 333 333 331 334 334 334 333 333 333 333 332 330
314 303 300 302 300 298 302 302 306 311 314 315 318 316 319 325 326 324 323 324 326 328 328 328 329 329 329 330 327 329 330 330 329 330 327 328 333 332 331 329 332 333 333 332 330 329 328 330 328
309 303 302 309 308 303 307 301 304 310 311 311 315 319 322 324 324 320 320 320 322 324 325 328 327 328 329 329 330 332 330 330 329 331 332 331 331 331 329 325 326 328 329 330 329 327 324 323 326
309 302 308 311 312 313 307 300 305 307 306 310 311 316 319 320 322 320 320 322 322 324 325 327 326 327 328 328 328 329 328 327 326 327 329 329 326 326 325 327 326 326 319 323 323 323 323 323 324
306 310 311 312 312 311 309 306 300 306 308 308 311 318 319 319 320 320 320 322 323 323 324 326 326 325 326 327 327 327 325 324 324 325 325 326 325 326 326 325 324 323 321 322 322 322 322 321 321
306 307 311 311 310 311 310 306 306 301 305 308 313 318 318 320 322 323 322 321 322 321 323 324 326 325 325 325 325 325 324 324 324 324 324 324 324 323 324 324 323 322 321 322 322 320 320 320 319
307 307 308 310 310 309 307 305 301 305 305 311 315 316 319 320 321 321 321 321 320 321 322 325 324 325 325 325 324 324 324 323 323 323 324 324 324 323 323 322 322 322 322 323 322 320 319 319 319
306 301 304 306 308 307 305 302 298 305 308 309 314 315 316 318 321 321 323 323 322 322 322 323 323 325 325 324 324 324 323 322 322 322 323 324 324 323 322 322 321 322 323 322 321 319 317 317 318
301 300 296 303 306 306 306 299 306 305 304 305 310 313 315 317 318 322 323 324 324 324 321 322 325 325 325 325 325 325 324 323 322 322 324 324 324 323 323 322 321 321 322 322 320 319 318 317 318
298 290 293 298 306 302 303 300 307 309 301 302 305 311 314 315 318 319 320 323 324 325 324 322 323 324 325 325 325 325 325 324 323 323 323 324 324 323 323 322 321 321 320 319 319 317 317 317 318
289 292 292 294 301 298 295 296 302 304 300 302 302 305 312 314 316 321 321 321 322 325 325 325 324 323 324 325 324 324 324 324 324 324 324 324 325 324 323 322 321 321 319 318 316 316 317 318 319
293 293 293 296 301 300 298 297 302 304 301 298 299 300 303 312 318 320 321 322 320 322 324 325 324 324 324 323 322 322 321 323 323 324 325 325 325 325 324 324 323 322 320 319 317 317 316 317 319
297 293 292 296 299 298 297 295 300 302 300 302 303 302 301 302 309 316 319 321 322 321 322 324 324 325 325 325 325 325 325 324 325 326 325 325 325 325 325 325 324 323 321 319 318 317 317 318 320
297 295 292 292 297 296 294 293 297 300 301 302 302 305 305 305 305 306 315 320 322 322 321 322 324 326 326 326 326 323 324 322 323 323 324 325 326 325 324 324 325 323 322 321 320 318 317 317 319
293 299 297 295 293 288 295 285 294 297 300 300 302 303 303 303 305 306 305 315 320 322 324 323 323 325 325 327 325 324 324 322 324 325 326 325 326 326 326 325 324 324 323 323 322 321 320 319 318
294 299 297 296 293 292 290 288 291 295 296 299 303 303 305 306 305 306 306 306 317 322 323 324 324 323 325 325 327 325 324 326 327 326 324 325 324 326 325 325 325 324 324 324 323 320 320 320 321
302 298 297 296 294 285 291 289 289 294 296 298 302 302 305 307 306 307 309 309 307 317 321 323 323 323 323 324 325 325 325 325 324 322 322 322 324 323 324 324 325 325 325 324 323 323 322 321 321
298 295 285 284 283 283 291 288 292 295 296 298 300 300 303 305 305 306 306 304 306 310 318 321 321 321 323 322 323 325 325 325 324 322 322 322 321 321 322 323 323 324 325 325 324 322 321 320 320
294 292 286 281 282 284 287 286 291 299 303 304 303 300 299 300 300 303 305 305 305 306 314 319 320 320 321 322 322 324 324 324 324 324 323 322 322 322 323 322 323 323 324 324 324 323 322 321 320
294 290 295 285 276 278 284 287 293 294 295 296 297 297 298 299 298 297 299 301 303 304 309 316 318 319 319 320 321 321 323 322 322 323 322 322 323 321 322 322 322 322 322 322 323 322 321 321 321
294 299 287 288 280 278 281 283 287 290 296 300 299 297 299 299 298 297 297 297 298 300 306 312 316 317 319 319 320 320 321 321 322 321 320 321 321 321 320 320 321 321 321 321 321 321 322 321 321
290 289 292 290 285 281 276 283 288 293 295 298 301 301 298 298 298 298 295 294 296 296 299 308 311 313 314 317 318 318 318 319 320 319 320 320 320 319 319 320 320 320 320 321 320 320 321 319 319
292 291 291 285 283 284 281 286 290 294 294 294 297 296 296 296 298 296 293 293 294 295 295 298 306 309 311 312 313 315 315 316 317 318 318 318 319 319 320 320 319 320 320 321 319 319 317 316 315
Wind_Speed
8 4 2 5 5 4 1 2 1 4 3 1 3 3 4 2 3 2 1 1 6 8 5 8 8 11 10 11 13 14 16 15 16 15 15 15 15 15 15 14 12 13 17 16 17 16 17 17 17
5 3 5 3 5 3 3 1 4 3 3 7 4 2 2 1 1 5 7 4 7 8 7 7 7 10 11 10 10 13 14 15 15 14 14 14 15 15 14 13 12 15 15 15 16 16 15 16 16
4 4 4 4 3 2 3 4 4 3 4 1 3 2 2 1 2 9 3 11 9 7 5 6 8 8 10 11 11 12 13 15 14 14 13 14 14 14 14 12 14 16 14 16 16 15 15 15 16
4 5 4 4 2 2 3 2 4 8 2 2 2 3 1 2 5 7 12 11 10 8 6 5 7 8 9 10 11 12 12 13 14 14 14 13 13 13 12 12 14 15 13 15 16 15 14 14 15
4 3 4 2 3 3 3 2 5 6 4 3 1 4 2 1 4 11 12 10 10 7 7 5 6 8 9 11 12 12 11 12 13 14 14 14 13 13 12 11 12 14 13 13 14 14 14 14 14
4 3 4 1 3 5 3 4 5 3 2 4 4 5 3 1 8 10 10 11 8 8 7 8 7 7 8 11 13 14 14 12 12 14 15 14 13 12 12 12 11 13 12 12 12 13 13 13 13
5 4 2 2 3 4 2 5 4 5 4 4 6 5 1 4 6 9 9 9 8 6 6 6 7 7 8 8 9 11 15 11 8 11 13 13 12 11 11 10 10 11 12 12 12 11 11 12 12
1 4 3 3 1 4 1 3 0 5 5 2 4 4 3 5 11 9 9 10 9 6 5 6 6 5 5 5 6 8 13 10 8 7 9 10 10 10 9 8 10 11 11 11 11 10 9 10 10
2 4 2 3 1 3 2 2 1 0 5 2 4 2 0 14 14 11 10 9 8 5 5 4 6 6 5 4 5 9 11 9 8 8 11 8 6 7 7 6 9 10 9 10 10 9 9 8 9
4 2 10 5 4 1 4 1 3 2 2 3 2 2 7 15 14 14 14 13 11 9 9 6 6 7 7 5 5 5 5 4 5 6 7 5 6 4 5 5 7 8 8 8 8 7 7 6 3
5 4 3 5 6 1 3 4 2 3 4 7 8 7 13 13 15 14 13 14 16 14 9 9 8 8 8 6 5 3 3 4 4 6 6 6 4 3 3 2 2 3 4 2 3 3 3 4 2
4 3 2 4 5 5 2 4 5 5 5 2 7 10 14 17 18 16 14 13 14 15 14 12 8 6 6 5 5 5 5 5 4 6 7 5 4 4 3 3 3 2 1 2 2 2 2 2 1
3 4 3 4 5 5 3 3 5 8 9 5 4 10 16 17 17 12 11 9 11 13 14 13 11 9 8 7 6 6 6 6 6 5 5 5 5 5 5 4 3 3 2 2 1 1 1 1 1
6 5 3 3 5 4 4 3 3 6 1 3 6 10 11 16 17 10 10 13 14 13 13 13 13 10 10 9 8 6 6 6 6 6 7 7 5 4 4 3 4 3 3 2 1 2 1 1 1
2 2 3 6 3 4 5 5 9 11 2 6 7 6 8 10 9 17 16 14 13 11 12 13 12 11 11 10 9 7 6 6 6 6 8 7 6 6 5 4 4 4 3 3 2 2 2 2 2
4 2 4 3 8 5 6 12 5 6 6 10 8 7 8 11 14 11 11 13 11 11 13 13 11 12 11 10 8 6 6 6 6 6 6 8 7 7 6 5 5 5 5 4 3 3 3 3 3
4 5 6 3 8 4 6 5 10 8 11 12 9 9 10 8 11 12 13 13 13 14 13 12 13 13 13 11 8 8 8 7 7 7 7 9 9 9 7 6 6 5 4 4 3 3 3 3 4
9 11 3 7 5 6 6 11 8 2 6 14 9 8 8 10 18 13 13 13 12 12 12 13 12 13 12 8 7 6 6 7 7 8 8 10 9 10 8 6 7 6 5 4 4 5 4 4 4
6 5 11 4 5 6 8 11 15 9 6 7 10 11 11 13 14 8 12 13 12 12 13 14 14 14 11 8 8 8 8 8 7 8 11 11 9 10 10 7 7 6 6 7 6 4 6 5 4
7 2 4 3 5 5 5 11 14 13 9 14 15 11 12 9 7 10 12 13 16 16 16 15 16 15 13 10 9 5 7 7 8 7 9 11 11 10 9 10 9 9 6 7 8 7 3 4 5
19 17 6 4 1 2 4 13 19 12 15 15 14 16 12 15 14 12 11 16 15 17 18 17 18 17 15 15 8 4 3 1 5 7 8 10 11 11 12 11 8 8 8 8 9 9 10 7 4
21 20 13 10 2 8 8 9 12 5 18 17 18 17 18 14 13 14 12 14 16 18 16 19 18 18 16 17 13 15 12 12 10 9 8 9 12 12 11 11 10 10 8 9 9 8 9 8 7
13 11 16 15 11 6 6 6 5 8 15 14 17 19 20 19 18 18 17 17 16 18 18 17 18 17 16 18 17 13 14 11 8 7 9 11 9 12 11 12 11 11 8 10 10 9 10 8 8
0 3 9 13 11 12 20 14 10 13 13 14 16 16 19 20 17 19 19 16 15 14 14 14 17 19 18 17 19 18 18 14 9 9 9 8 7 8 11 11 11 11 11 11 10 11 11 10 9
8 6 6 10 10 10 15 10 23 7 7 10 13 13 17 17 15 17 17 12 13 14 16 14 17 19 18 19 19 21 20 17 16 13 10 10 7 7 10 12 11 10 12 11 9 10 12 10 10
16 17 8 5 4 11 4 14 11 13 22 22 17 13 7 8 10 13 13 14 15 15 16 16 17 18 17 18 19 18 18 12 12 12 10 9 9 9 9 10 11 12 10 9 9 8 8 8 9
3 17 5 2 1 3 5 11 7 7 9 11 13 8 14 14 10 11 10 9 10 10 15 17 17 16 16 18 15 15 14 14 13 13 11 9 8 7 9 10 10 10 10 10 10 8 9 10 10
14 2 5 6 5 5 8 9 8 8 18 20 13 14 12 7 10 8 9 9 8 8 8 10 14 17 14 15 13 12 13 12 11 8 10 10 9 8 8 9 9 9 9 10 10 8 9 9 8
6 11 8 3 5 5 3 8 9 13 13 14 16 13 8 8 9 9 8 5 6 5 7 8 9 9 8 11 12 11 10 10 9 9 9 9 7 8 8 9 9 9 8 8 9 9 9 9 8
9 12 15 10 4 3 2 21 4 9 7 3 8 9 5 6 8 7 7 6 5 6 6 7 7 9 9 8 9 10 8 8 8 8 6 6 8 6 8 7 7 7 8 8 8 8 6 6 5
Wind_Direction
318 341 70 42 49 59 139 225 155 132 158 184 123 151 184 76 158 195 86 160 153 133 136 121 112 111 115 112 116 118 113 112 108 104 102 101 101 102 103 104 103 88 87 92 92 87 88 89 91
314 0 38 76 78 47 274 221 193 180 136 127 82 80 99 151 117 122 135 187 145 134 131 122 121 121 123 119 122 122 118 112 110 104 104 100 102 104 104 106 98 87 85 93 94 89 91 91 89
305 41 68 78 97 160 243 194 175 122 131 101 106 58 114 149 161 153 144 146 134 123 128 129 133 128 129 126 121 126 121 117 112 109 103 104 101 102 106 106 92 87 84 97 92 92 95 94 93
351 16 50 72 276 237 208 205 156 134 271 58 118 110 37 232 168 157 147 142 135 128 119 126 130 132 126 124 121 126 123 121 116 109 106 100 100 101 90 92 92 92 90 106 95 94 97 98 97
34 43 53 45 285 277 254 201 166 148 139 141 171 181 154 72 109 140 146 139 139 137 129 124 106 126 130 130 126 120 126 121 120 116 113 108 104 102 102 101 102 106 98 96 100 96 99 100 99
47 83 50 313 278 293 271 163 147 132 127 142 118 147 189 118 142 144 145 138 139 144 137 133 113 101 128 136 128 120 114 111 126 131 127 121 117 115 110 111 108 110 104 100 101 99 100 102 99
115 91 268 229 265 308 309 147 164 156 159 227 149 146 260 177 143 144 142 132 138 143 142 136 138 129 118 121 129 138 115 102 117 146 136 130 124 115 108 104 109 108 102 95 94 100 100 99 100
51 100 7 267 206 269 16 214 262 163 200 89 177 179 200 188 144 126 136 143 152 145 153 145 138 124 126 131 124 105 99 105 94 88 94 106 107 109 108 102 109 116 111 102 92 85 96 99 99
337 90 164 279 252 303 29 275 1 358 123 206 199 170 111 134 134 138 146 153 164 159 161 157 148 137 129 124 123 94 101 112 112 109 116 117 129 126 116 105 98 99 99 102 100 96 95 106 105
77 172 195 174 162 295 313 301 209 200 142 237 244 71 130 146 157 162 168 168 177 178 180 177 170 160 152 146 141 115 116 129 135 138 135 131 127 116 100 91 92 95 97 90 94 91 92 98 114
135 213 203 159 108 13 16 341 287 159 232 218 205 161 164 168 173 174 185 182 180 180 187 193 187 181 166 156 146 147 149 148 147 150 152 140 123 130 122 119 98 106 91 104 94 93 81 103 126
151 229 226 176 125 105 334 300 315 201 253 309 223 156 171 180 188 185 186 189 178 184 190 197 195 184 177 162 173 168 169 168 174 175 160 155 149 150 150 153 153 149 134 131 81 85 85 110 128
184 200 207 267 167 144 141 243 237 264 256 293 112 158 179 189 197 199 179 181 186 191 193 195 191 185 186 183 182 183 186 180 180 178 180 169 173 174 174 177 173 181 176 174 166 142 178 175 207
209 191 213 226 270 189 160 234 141 270 310 195 174 196 191 193 196 189 178 191 193 192 194 194 195 193 183 190 191 193 191 191 183 185 192 194 186 186 185 183 194 196 200 206 224 221 220 252 266
166 212 254 233 180 277 158 236 215 237 155 242 223 210 205 211 191 202 200 200 193 199 186 193 196 189 190 198 195 196 199 194 200 196 193 196 196 194 192 197 200 207 201 206 217 219 231 254 261
140 158 236 232 170 230 212 249 225 228 184 238 232 222 218 211 217 218 209 201 199 191 192 185 188 192 193 198 198 201 203 197 205 204 203 206 203 204 206 209 215 207 201 204 215 221 242 247 248
212 225 205 288 191 136 201 254 252 202 188 234 228 225 220 223 223 214 214 204 198 198 189 188 188 189 195 198 198 201 200 206 203 206 209 209 208 204 205 211 219 206 206 209 211 216 228 244 251
205 213 207 196 204 167 214 257 265 252 216 224 225 230 220 225 234 217 209 205 199 201 197 193 191 191 193 193 197 200 204 213 206 210 213 211 212 210 207 218 221 202 209 214 207 221 218 246 257
131 163 210 202 199 169 221 245 253 252 225 256 246 233 229 224 238 196 207 201 195 196 197 199 187 193 184 187 195 213 215 213 220 217 212 211 212 211 209 216 221 210 214 218 210 213 227 238 235
240 176 214 226 192 195 226 255 269 251 235 225 235 237 230 235 214 214 203 199 200 198 204 203 202 196 193 193 204 200 193 210 219 212 211 215 210 206 208 212 214 207 209 215 213 205 207 229 197
224 229 197 224 205 260 351 270 260 248 236 232 229 238 240 227 232 232 201 205 203 206 202 204 203 199 197 197 188 162 165 149 191 211 215 214 213 207 209 214 211 204 202 215 212 208 212 232 209
225 216 230 225 206 244 168 274 254 239 232 223 229 226 233 229 229 234 210 212 204 214 205 208 204 200 197 190 191 199 207 213 216 217 213 211 210 215 209 212 209 212 209 215 214 209 212 218 233
241 191 200 217 234 259 228 272 243 221 237 239 231 226 226 222 218 225 219 208 207 208 207 204 201 202 196 195 198 200 211 220 215 204 199 206 205 213 209 209 210 214 211 221 214 207 210 211 231
305 163 188 215 213 230 227 213 217 224 218 247 243 230 229 229 214 224 229 219 212 199 199 197 198 203 197 194 199 202 211 213 204 199 205 207 204 206 212 211 213 215 216 218 217 220 214 216 225
236 189 188 209 214 226 200 211 240 231 225 228 240 233 229 224 218 220 222 214 209 196 192 195 198 206 197 194 198 204 209 208 210 202 205 200 197 204 208 203 209 216 220 221 217 217 225 220 229
220 226 227 231 216 222 109 223 240 229 231 243 240 244 247 234 231 231 224 218 217 206 196 193 193 204 198 198 202 206 207 208 212 209 203 208 205 208 198 201 211 217 217 217 214 223 226 222 229
167 212 172 118 335 16 194 273 285 241 258 253 255 232 242 232 229 235 233 220 211 205 202 198 197 200 195 201 203 206 206 207 209 208 200 203 205 201 194 196 206 212 213 212 214 222 224 216 226
231 266 164 206 250 232 228 259 223 216 220 235 237 238 246 224 228 227 234 228 211 206 207 198 202 200 193 190 194 202 202 205 206 186 192 199 205 198 187 196 205 210 212 212 210 222 228 223 227
184 230 241 155 221 188 265 259 202 199 216 227 237 242 244 246 228 227 233 232 222 202 196 199 188 178 178 181 187 188 190 189 185 190 200 201 194 186 194 199 207 213 216 213 210 218 224 218 229
210 216 220 250 247 220 188 268 191 225 232 270 271 283 253 228 242 212 226 182 180 180 181 194 189 186 184 172 165 181 175 173 182 193 184 177 199 190 201 202 204 206 213 217 209 223 212 222 211